Portada
METAR-TAF:

METAR-TAF

Aeropuertos :

Angoon, Alaska, Estados Unidos

latitud: 57-30N, longitud: 134-35W, altitud: 0 m

Observación

El informe se hizo hace 5 minutos, a las 09:27 UTC
Viento calma
Temperatura 6°C
Humedad 93%
Presión 1026 hPa
Visibilidad: 16.1 km
Nubes dispersas a una altura de 2600 ft
Cielo cubierto a una altura de 4000 ft

METAR: PAGN 260927Z AUTO 00000KT 10SM SCT026 OVC040 06/05 A3030 RMK AO2

Hora: 01:32 (09:32 UTC)


TAF: falta

Observaciones y pronósticos meteorológicos de más de 4000 aeropuertos (mensajes METAR y TAF).

Los puntos amarillos y rojos representan las estaciones disponibles.

Ponga el ratón en el punto deseado para ver el nombre de la estación.

Haga clic para ver las observaciones y los pronósticos meteorológicos.

Para cambiar el mapa : haga clic en los botones verdes con una cruz de color negro para hacer un zoom, en el botón verde con un guión para alejar o en las flechas verdes para mapas adyacentes.


METAR-TAF: